Wind from 282 at 15 knots gusting 18

Air temperature 18.3° C
Dewpoint 6.5° C

Last reported at 2014-Apr-23 17:25 UTC.
Time now 2014-Apr-24 02:02 UTC

Location: N 40°27' W 003°35'.
View on Google Maps.

See reports from other nearby stations

Tides Stations Pressure Air Temp Water Temp Dewpoint Dewpoint depression Visibility Wind Speed Wind Dir Waves Ship positions

  
sailing weather and tide predictions

DW8501 Madrid ES weather

date/time (UTC)wind fromknots sea level pressurealtimeterstation pressurevisibilityair tempwater tempwave heightnotes
2014-Apr-23 17:25 282 15 gusting 18 18.3
2014-Apr-23 17:20 291 11 gusting 17 18.3
2014-Apr-23 17:15 291 7 gusting 14 18.3
2014-Apr-23 17:10 276 11 gusting 14 18.3
2014-Apr-23 17:05 266 9 gusting 15 17.8
2014-Apr-23 17:00 258 11 gusting 21 17.8
2014-Apr-23 16:55 269 12 gusting 21 18.3
2014-Apr-23 16:50 277 18 gusting 21 18.3
2014-Apr-23 16:45 300 16 gusting 25 17.8
2014-Apr-23 16:40 288 13 gusting 25 17.8
2014-Apr-23 16:35 251 11 gusting 19 18.3
2014-Apr-23 16:30 252 13 gusting 19 17.8
2014-Apr-23 16:25 254 12 gusting 16 18.3
2014-Apr-23 16:20 280 9 gusting 19 17.8
2014-Apr-23 16:15 291 12 gusting 19 18.3
2014-Apr-23 16:10 285 13 gusting 19 18.3
2014-Apr-23 16:05 294 6 gusting 18 18.3
2014-Apr-23 16:00 272 9 gusting 19 18.9
2014-Apr-23 15:55 253 10 gusting 23 18.3
2014-Apr-23 15:50 262 13 gusting 23 18.3
2014-Apr-23 15:45 264 10 gusting 28 18.3
2014-Apr-23 15:40 276 11 gusting 28 17.8
2014-Apr-23 15:35 296 16 gusting 20 19.4
2014-Apr-23 15:30 268 12 gusting 20 18.3
2014-Apr-23 15:25 241 15 gusting 19 18.3
2014-Apr-23 15:20 267 9 gusting 19 18.3
2014-Apr-23 15:15 251 13 gusting 19 17.8
2014-Apr-23 15:10 233 13 gusting 19 17.8
2014-Apr-23 15:05 271 13 gusting 18 17.8
2014-Apr-23 15:00 321 8 gusting 18 18.3
2014-Apr-23 14:55 303 13 gusting 19 18.3
2014-Apr-23 14:50 267 11 gusting 19 17.8
2014-Apr-23 14:45 232 16 gusting 19 17.2
2014-Apr-23 14:40 221 12 gusting 19 17.8
2014-Apr-23 14:35 222 7 gusting 18 17.8
2014-Apr-23 14:30 232 13 gusting 19 17.2
2014-Apr-23 14:25 264 13 gusting 19 17.2
2014-Apr-23 14:20 274 11 gusting 19 17.2
2014-Apr-23 14:15 285 11 gusting 17 18.3
2014-Apr-23 14:10 268 6 gusting 18 17.8
2014-Apr-23 14:05 246 11 gusting 18 17.8
2014-Apr-23 14:00 263 13 gusting 19 17.8
2014-Apr-23 13:55 266 14 gusting 19 17.8
2014-Apr-23 13:50 276 13 gusting 18 17.2
2014-Apr-23 13:45 285 13 gusting 18 17.8
2014-Apr-23 13:40 261 13 gusting 20 18.3
2014-Apr-23 13:35 265 9 gusting 20 18.3
2014-Apr-23 13:30 284 13 gusting 20 18.3
2014-Apr-23 13:25 278 10 gusting 19 17.8
2014-Apr-23 13:20 260 14 gusting 19 17.8
2014-Apr-23 13:15 253 13 gusting 19 18.3
2014-Apr-23 13:10 273 10 gusting 20 17.8
2014-Apr-23 13:05 267 12 gusting 20 17.8
2014-Apr-23 13:00 263 14 gusting 20 17.8
2014-Apr-23 12:55 266 17 gusting 20 17.8
2014-Apr-23 12:50 250 16 gusting 20 17.8
2014-Apr-23 12:45 260 12 gusting 19 18.3
2014-Apr-23 12:40 290 9 gusting 19 17.8
2014-Apr-23 12:35 293 7 gusting 18 17.8
2014-Apr-23 12:30 304 14 gusting 23 17.2
2014-Apr-23 12:25 309 13 gusting 23 16.7
2014-Apr-23 12:20 268 13 gusting 23 16.7
2014-Apr-23 12:15 241 10 gusting 23 16.7
2014-Apr-23 12:10 260 15 gusting 21 17.2
2014-Apr-23 12:05 304 13 gusting 19 16.7
2014-Apr-23 12:00 308 9 gusting 19 16.7
2014-Apr-23 11:55 299 14 gusting 23 16.7
2014-Apr-23 11:50 290 13 gusting 23 16.7
2014-Apr-23 11:45 273 14 gusting 21 16.7
2014-Apr-23 11:40 275 17 gusting 23 16.7
2014-Apr-23 11:35 277 13 gusting 23 16.7
2014-Apr-23 11:30 253 15 gusting 23 16.7
2014-Apr-23 11:25 260 13 gusting 23 16.7
2014-Apr-23 11:20 274 12 gusting 23 16.7
2014-Apr-23 11:15 257 18 gusting 23 16.7
2014-Apr-23 11:10 273 13 gusting 23 16.1
2014-Apr-23 11:05 285 14 gusting 22 16.7
2014-Apr-23 11:00 293 9 gusting 23 16.1
2014-Apr-23 10:55 296 13 gusting 23 16.1
2014-Apr-23 10:50 286 13 gusting 19 16.7
2014-Apr-23 10:45 291 14 gusting 21 15.6
2014-Apr-23 10:40 265 17 gusting 23 15.6
2014-Apr-23 10:35 248 15 gusting 23 16.1
2014-Apr-23 10:30 244 19 gusting 23 15.6
2014-Apr-23 10:25 261 13 gusting 23 16.1
2014-Apr-23 10:20 279 14 gusting 23 15.6
2014-Apr-23 10:15 276 13 gusting 20 15.6
2014-Apr-23 10:10 294 11 gusting 20 15.6
2014-Apr-23 10:05 312 13 gusting 23 15.6
2014-Apr-23 10:00 299 13 gusting 23 15.0
2014-Apr-23 09:55 277 13 gusting 18 15.0
2014-Apr-23 09:50 255 9 gusting 20 15.0
2014-Apr-23 09:45 252 14 gusting 20 15.0
2014-Apr-23 09:40 266 14 gusting 21 15.0
2014-Apr-23 09:35 247 14 gusting 21 15.0
2014-Apr-23 09:30 248 13 gusting 18 15.0
2014-Apr-23 09:25 257 12 gusting 18 14.4
2014-Apr-23 09:20 237 10 gusting 18 14.4
2014-Apr-23 09:15 232 12 gusting 15 14.4
2014-Apr-23 09:10 252 10 gusting 15 14.4
2014-Apr-23 09:05 282 2 gusting 12 14.4
2014-Apr-23 09:00 269 8 gusting 12 15.0
2014-Apr-23 08:55 250 3 gusting 8 14.4
2014-Apr-23 08:50 281 5 gusting 10 13.9
2014-Apr-23 08:45 279 3 gusting 10 13.9
2014-Apr-23 08:40 245 6 gusting 11 13.9
2014-Apr-23 08:35 245 6 gusting 11 13.3
2014-Apr-23 08:30 249 7 gusting 11 13.9
2014-Apr-23 08:25 231 3 gusting 11 13.9
2014-Apr-23 08:20 205 5 gusting 8 15.0
2014-Apr-23 08:15 15.6
2014-Apr-23 08:10 15.6
2014-Apr-23 08:05 14.4
2014-Apr-23 08:00 146 1 gusting 4 13.9
2014-Apr-23 07:55 125 1 gusting 3 13.3
2014-Apr-23 07:50 11.7
2014-Apr-23 07:45 088 1 gusting 4 11.1
2014-Apr-23 07:40 083 1 gusting 4 11.7
2014-Apr-23 07:35 080 3 gusting 6 11.7
2014-Apr-23 07:30 083 1 gusting 6 11.1
2014-Apr-23 07:25 090 3 gusting 5 11.1
2014-Apr-23 07:20 097 1 gusting 3 11.7
2014-Apr-23 07:15 098 1 gusting 3 11.7
2014-Apr-23 07:10 096 1 gusting 3 11.1
2014-Apr-23 07:05 107 1 gusting 2 11.7
2014-Apr-23 07:00 11.7
2014-Apr-23 06:55 11.7
2014-Apr-23 06:50 11.1
2014-Apr-23 06:45 11.7
2014-Apr-23 06:40 11.1
2014-Apr-23 06:35 10.6
2014-Apr-23 06:30 10.0
2014-Apr-23 06:25 10.0
2014-Apr-23 06:20 10.0
2014-Apr-23 06:15 10.0
2014-Apr-23 06:10 329 0 gusting 1 9.4
2014-Apr-23 06:05 350 0 gusting 1 9.4
2014-Apr-23 06:00 340 1 gusting 1 9.4
2014-Apr-23 05:55 8.9
2014-Apr-23 05:50 8.3
2014-Apr-23 05:45 7.8
2014-Apr-23 05:40 280 0 gusting 1 7.8
2014-Apr-23 05:35 7.8
2014-Apr-23 05:30 7.8
2014-Apr-23 05:25 348 0 gusting 1 7.8
2014-Apr-23 05:20 354 1 gusting 1 7.8
2014-Apr-23 05:15 328 0 gusting 1 7.8
2014-Apr-23 05:10 298 0 gusting 1 7.8
2014-Apr-23 05:05 7.8
2014-Apr-23 05:00 7.8
2014-Apr-23 04:55 293 0 gusting 1 7.8
2014-Apr-23 04:50 7.8
2014-Apr-23 04:45 230 0 gusting 1 7.8
2014-Apr-23 04:40 7.8
2014-Apr-23 04:35 7.8
2014-Apr-23 04:30 7.8
2014-Apr-23 04:25 7.8
2014-Apr-23 04:20 233 0 gusting 2 7.8
2014-Apr-23 04:15 243 0 gusting 2 7.8
2014-Apr-23 04:10 243 1 gusting 3 7.8
2014-Apr-23 04:05 240 1 gusting 3 7.8
2014-Apr-23 04:00 243 1 gusting 3 7.8
2014-Apr-23 03:55 242 1 gusting 3 7.8
2014-Apr-23 03:50 243 1 gusting 3 7.8
2014-Apr-23 03:45 7.8
2014-Apr-23 03:40 255 0 gusting 4 7.8
2014-Apr-23 03:35 222 2 gusting 4 7.8
2014-Apr-23 03:30 209 1 gusting 4 7.8
2014-Apr-23 03:25 201 1 gusting 3 7.8
2014-Apr-23 03:20 198 1 gusting 3 7.8
2014-Apr-23 03:15 217 1 gusting 3 7.8
2014-Apr-23 03:10 216 0 gusting 3 8.3
2014-Apr-23 03:05 191 2 gusting 3 8.3
2014-Apr-23 03:00 171 1 gusting 3 8.3
2014-Apr-23 02:55 168 1 gusting 3 8.3
2014-Apr-23 02:50 188 2 gusting 3 8.9
2014-Apr-23 02:45 200 1 gusting 3 8.9
2014-Apr-23 02:40 178 1 gusting 3 8.9
2014-Apr-23 02:35 177 1 gusting 3 8.9
2014-Apr-23 02:30 214 0 gusting 2 8.9
2014-Apr-23 02:25 203 0 gusting 2 9.4
2014-Apr-23 02:20 9.4
2014-Apr-23 02:15 9.4
2014-Apr-23 02:10 8.9
2014-Apr-23 02:05 9.4
2014-Apr-23 02:00 9.4
2014-Apr-23 01:55 9.4
2014-Apr-23 01:50 208 2 gusting 4 9.4
2014-Apr-23 01:45 205 1 gusting 6 9.4
2014-Apr-23 01:40 194 2 gusting 6 10.0
2014-Apr-23 01:35 193 4 gusting 6 10.0
2014-Apr-23 01:30 186 3 gusting 6 10.0
2014-Apr-23 01:25 182 4 gusting 6 10.6
2014-Apr-23 01:20 189 3 gusting 5 10.6
2014-Apr-23 01:15 10.6
2014-Apr-23 01:10 187 1 gusting 3 10.6
2014-Apr-23 01:05 191 0 gusting 2 10.6
2014-Apr-23 01:00 10.6
2014-Apr-23 00:55 179 1 gusting 5 10.6
2014-Apr-23 00:50 193 2 gusting 5 11.1
2014-Apr-23 00:45 233 3 gusting 6 11.7
2014-Apr-23 00:40 243 3 gusting 6 11.7
2014-Apr-23 00:35 235 4 gusting 8 11.7
2014-Apr-23 00:30 217 4 gusting 8 11.1
2014-Apr-23 00:25 218 6 gusting 8 11.1
2014-Apr-23 00:20 198 6 gusting 8 11.1
2014-Apr-23 00:15 203 3 gusting 9 11.7
2014-Apr-23 00:10 227 6 gusting 9 12.2
2014-Apr-23 00:05 242 5 gusting 9 12.8
2014-Apr-23 00:00 245 5 gusting 9 12.8
2014-Apr-22 23:55 270 5 gusting 14 12.8
2014-Apr-22 23:50 290 6 gusting 14 12.8
2014-Apr-22 23:45 289 12 gusting 14 12.8
2014-Apr-22 23:40 298 8 gusting 16 12.8
2014-Apr-22 23:35 302 9 gusting 18 12.8
2014-Apr-22 23:30 296 12 gusting 18 12.8
2014-Apr-22 23:25 285 8 gusting 16 12.8
2014-Apr-22 23:20 275 7 gusting 14 12.8
2014-Apr-22 23:15 276 9 gusting 13 12.8
2014-Apr-22 23:10 273 8 gusting 14 12.8
2014-Apr-22 23:05 274 6 gusting 14 12.8
2014-Apr-22 23:00 271 9 gusting 14 12.8
2014-Apr-22 22:55 272 11 gusting 14 12.8
2014-Apr-22 22:50 276 11 gusting 14 12.8
2014-Apr-22 22:45 292 9 gusting 14 13.3
2014-Apr-22 22:40 286 7 gusting 14 13.3
2014-Apr-22 22:35 274 6 gusting 13 13.3
2014-Apr-22 22:30 278 8 gusting 14 13.3
2014-Apr-22 22:25 282 6 gusting 14 13.3
2014-Apr-22 22:20 304 6 gusting 15 13.3
2014-Apr-22 22:15 310 6 gusting 15 13.3
2014-Apr-22 22:10 310 8 gusting 13 13.3
2014-Apr-22 22:05 309 9 gusting 15 13.3
2014-Apr-22 22:00 312 9 gusting 19 13.3
2014-Apr-22 21:55 313 11 gusting 19 13.3
2014-Apr-22 21:50 278 13 gusting 17 13.3
2014-Apr-22 21:45 267 9 gusting 19 13.3
2014-Apr-22 21:40 275 12 gusting 19 13.9
2014-Apr-22 21:35 292 9 gusting 18 13.9
2014-Apr-22 21:30 295 6 gusting 15 13.9
2014-Apr-22 21:25 291 9 gusting 16 13.9
2014-Apr-22 21:20 297 9 gusting 16 13.9
2014-Apr-22 21:15 274 9 gusting 19 13.9
2014-Apr-22 21:10 282 8 gusting 19 13.9
2014-Apr-22 21:05 308 13 gusting 19 13.9
2014-Apr-22 21:00 300 9 gusting 21 13.9
2014-Apr-22 20:55 293 12 gusting 21 13.9
2014-Apr-22 20:50 283 16 gusting 21 13.9
2014-Apr-22 20:45 295 11 gusting 21 13.9
2014-Apr-22 20:40 295 14 gusting 21 13.9
2014-Apr-22 20:35 289 13 gusting 23 13.9
2014-Apr-22 20:30 293 9 gusting 23 13.9
2014-Apr-22 20:25 290 9 gusting 19 13.9
2014-Apr-22 20:20 302 10 gusting 21 14.4
2014-Apr-22 20:15 318 10 gusting 21 14.4
2014-Apr-22 20:10 330 9 gusting 20 14.4
2014-Apr-22 20:05 316 17 gusting 20 14.4
2014-Apr-22 20:00 270 17 gusting 20 14.4
2014-Apr-22 19:55 272 9 gusting 19 14.4
2014-Apr-22 19:50 294 10 gusting 19 14.4
2014-Apr-22 19:45 287 13 gusting 19 14.4
2014-Apr-22 19:40 274 12 gusting 19 14.4
2014-Apr-22 19:35 279 13 gusting 19 14.4
2014-Apr-22 19:30 276 6 gusting 16 14.4
2014-Apr-22 19:25 282 12 gusting 19 14.4
2014-Apr-22 19:20 289 10 gusting 19 14.4
2014-Apr-22 19:15 296 11 gusting 19 14.4
2014-Apr-22 19:10 295 13 gusting 19 14.4
2014-Apr-22 19:05 297 9 gusting 19 15.0
2014-Apr-22 19:00 304 11 gusting 19 15.0
2014-Apr-22 18:55 288 11 gusting 16 15.0
2014-Apr-22 18:50 270 13 gusting 19 15.0
2014-Apr-22 18:45 283 9 gusting 19 15.0
2014-Apr-22 18:40 296 11 gusting 17 15.6
2014-Apr-22 18:35 283 11 gusting 14 15.6
2014-Apr-22 18:30 266 8 gusting 14 15.6
2014-Apr-22 18:25 289 9 gusting 16 16.1
2014-Apr-22 18:20 299 7 gusting 16 16.1
2014-Apr-22 18:15 263 10 gusting 19 16.1
2014-Apr-22 18:10 248 11 gusting 19 15.6
2014-Apr-22 18:05 254 18 gusting 19 16.1
2014-Apr-22 18:00 265 18 gusting 19 16.1
2014-Apr-22 17:55 264 13 gusting 19 16.7
2014-Apr-22 17:50 264 13 gusting 19 16.7
2014-Apr-22 17:45 287 13 gusting 16 16.7
2014-Apr-22 17:40 301 13 gusting 19 16.7
2014-Apr-22 17:35 291 13 gusting 19 16.7
2014-Apr-22 17:30 250 7 gusting 24 16.7
2014-Apr-22 17:25 248 10 gusting 24 16.7
2014-Apr-22 17:20 253 11 gusting 16 16.7
2014-Apr-22 17:15 259 10 gusting 18 16.7
2014-Apr-22 17:10 261 10 gusting 18 16.7
2014-Apr-22 17:05 255 10 gusting 23 16.1
2014-Apr-22 17:00 250 13 gusting 23 16.1
2014-Apr-22 16:55 245 17 gusting 25 16.7
2014-Apr-22 16:50 275 16 gusting 25 16.1
2014-Apr-22 16:45 291 13 gusting 22 16.1
2014-Apr-22 16:40 274 10 gusting 19 16.1
2014-Apr-22 16:35 268 16 gusting 21 16.1
2014-Apr-22 16:30 279 12 gusting 21 16.1
2014-Apr-22 16:25 281 12 gusting 19 16.7
2014-Apr-22 16:20 257 9 gusting 17 16.7
2014-Apr-22 16:15 254 11 gusting 17 16.7
2014-Apr-22 16:10 273 13 gusting 19 16.7
2014-Apr-22 16:05 259 11 gusting 19 16.7
2014-Apr-22 16:00 228 9 gusting 15 16.7
2014-Apr-22 15:55 235 10 gusting 15 16.7
2014-Apr-22 15:50 243 8 gusting 14 16.1
2014-Apr-22 15:45 228 12 gusting 19 16.7
2014-Apr-22 15:40 234 10 gusting 19 16.1
2014-Apr-22 15:35 234 14 gusting 19 16.7
2014-Apr-22 15:30 218 14 gusting 17 16.7
2014-Apr-22 15:25 228 6 gusting 16 16.7
2014-Apr-22 15:20 240 7 gusting 16 16.1
2014-Apr-22 15:15 255 12 gusting 14 17.2
2014-Apr-22 15:10 258 8 gusting 13 16.7
2014-Apr-22 15:05 247 9 gusting 14 16.7
2014-Apr-22 15:00 243 11 gusting 14 16.7
2014-Apr-22 14:55 241 6 gusting 14 16.7
2014-Apr-22 14:50 248 6 gusting 13 16.7
2014-Apr-22 14:45 233 6 gusting 15 17.2
2014-Apr-22 14:40 216 9 gusting 17 17.2
2014-Apr-22 14:35 214 6 gusting 17 16.7
2014-Apr-22 14:30 210 9 gusting 14 17.8
2014-Apr-22 14:25 229 9 gusting 13 17.2
2014-Apr-22 14:20 257 7 gusting 13 16.7
2014-Apr-22 14:15 275 10 gusting 17 17.2
2014-Apr-22 14:10 255 6 gusting 17 16.7
2014-Apr-22 14:05 234 13 gusting 18 16.7
2014-Apr-22 14:00 254 5 gusting 18 16.7
2014-Apr-22 13:55 256 11 gusting 14 16.7
2014-Apr-22 13:50 241 9 gusting 16 15.6
2014-Apr-22 13:45 234 9 gusting 16 15.6
2014-Apr-22 13:40 245 13 gusting 16 15.6
2014-Apr-22 13:35 249 9 gusting 16 16.1
2014-Apr-22 13:30 233 12 gusting 16 15.6
2014-Apr-22 13:25 251 13 gusting 16 15.6
2014-Apr-22 13:20 248 12 gusting 19 15.6
2014-Apr-22 13:15 230 9 gusting 19 15.6
2014-Apr-22 13:10 277 6 gusting 17 16.1
2014-Apr-22 13:05 291 13 gusting 18 16.1
2014-Apr-22 13:00 257 13 gusting 18 16.1
2014-Apr-22 12:55 249 13 gusting 18 15.6
2014-Apr-22 12:50 257 5 gusting 17 15.6
2014-Apr-22 12:45 274 9 gusting 19 15.6
2014-Apr-22 12:40 278 8 gusting 19 15.6
2014-Apr-22 12:35 279 9 gusting 18 16.1
2014-Apr-22 12:30 297 2 gusting 13 16.1
2014-Apr-22 12:25 334 3 gusting 8 16.7
2014-Apr-22 12:20 295 1 gusting 14 16.1
2014-Apr-22 12:15 264 1 gusting 14 16.1
2014-Apr-22 12:10 258 5 gusting 13 16.1
2014-Apr-22 12:05 252 6 gusting 17 15.6
2014-Apr-22 12:00 250 11 gusting 17 15.0
2014-Apr-22 11:55 274 6 gusting 16 15.0
2014-Apr-22 11:50 315 9 gusting 20 15.6
2014-Apr-22 11:45 293 8 gusting 20 14.4
2014-Apr-22 11:40 257 13 gusting 15 14.4
2014-Apr-22 11:35 288 6 gusting 13 15.0
2014-Apr-22 11:30 287 4 gusting 13 15.0
2014-Apr-22 11:25 265 9 gusting 13 14.4
2014-Apr-22 11:20 278 8 gusting 13 14.4
2014-Apr-22 11:15 293 8 gusting 19 14.4
2014-Apr-22 11:10 265 7 gusting 19 14.4
2014-Apr-22 11:05 247 8 gusting 19 14.4
2014-Apr-22 11:00 279 8 gusting 13 14.4
2014-Apr-22 10:55 278 8 gusting 14 14.4
2014-Apr-22 10:50 272 6 gusting 16 14.4
2014-Apr-22 10:45 293 10 gusting 18 14.4
2014-Apr-22 10:40 276 9 gusting 18 14.4
2014-Apr-22 10:35 247 8 gusting 16 14.4
2014-Apr-22 10:30 275 11 gusting 17 13.9
2014-Apr-22 10:25 296 4 gusting 17 14.4
2014-Apr-22 10:20 291 6 gusting 14 14.4
2014-Apr-22 10:15 297 11 gusting 14 15.6
2014-Apr-22 10:10 308 3 gusting 14 15.0
2014-Apr-22 10:05 303 6 gusting 20 14.4
2014-Apr-22 10:00 301 11 gusting 20 14.4
2014-Apr-22 09:55 318 5 gusting 13 14.4
2014-Apr-22 09:50 297 8 gusting 13 14.4
2014-Apr-22 09:45 312 6 gusting 13 13.9
2014-Apr-22 09:40 345 6 gusting 8 15.0
2014-Apr-22 09:35 281 5 gusting 7 15.6
2014-Apr-22 09:30 232 2 gusting 6 16.1
2014-Apr-22 09:25 022 1 gusting 6 15.0
2014-Apr-22 09:20 044 2 gusting 6 14.4
2014-Apr-22 09:15 077 1 gusting 7 13.9
2014-Apr-22 09:10 070 1 gusting 7 13.3
2014-Apr-22 09:05 062 6 gusting 7 12.8
2014-Apr-22 09:00 070 6 gusting 6 12.8
2014-Apr-22 08:55 071 3 gusting 7 12.8
2014-Apr-22 08:50 069 3 gusting 7 12.8
2014-Apr-22 08:45 078 3 gusting 6 12.8
2014-Apr-22 08:40 068 4 gusting 6 12.2
2014-Apr-22 08:35 066 3 gusting 6 12.8
2014-Apr-22 08:30 039 2 gusting 6 13.3
2014-Apr-22 08:25 13.3
2014-Apr-22 08:20 003 1 gusting 3 13.3
2014-Apr-22 08:15 049 0 gusting 6 13.9
2014-Apr-22 08:10 031 1 gusting 8 13.9
2014-Apr-22 08:05 351 5 gusting 8 13.9
2014-Apr-22 08:00 007 1 gusting 5 13.9
2014-Apr-22 07:55 012 2 gusting 5 13.9
2014-Apr-22 07:50 314 1 gusting 6 13.3
2014-Apr-22 07:45 321 3 gusting 8 13.3
2014-Apr-22 07:40 341 5 gusting 8 13.3
2014-Apr-22 07:35 334 3 gusting 6 12.8
2014-Apr-22 07:30 294 3 gusting 6 12.8
2014-Apr-22 07:25 270 3 gusting 6 12.2
2014-Apr-22 07:20 284 2 gusting 8 11.7
2014-Apr-22 07:15 271 4 gusting 8 11.7
2014-Apr-22 07:10 250 3 gusting 8 11.7
2014-Apr-22 07:05 242 6 gusting 8 11.7
2014-Apr-22 07:00 252 3 gusting 8 11.1
2014-Apr-22 06:55 272 6 gusting 8 11.7
2014-Apr-22 06:50 265 1 gusting 6 11.1
2014-Apr-22 06:45 255 4 gusting 6 11.1
2014-Apr-22 06:40 261 3 gusting 6 10.6
2014-Apr-22 06:35 269 3 gusting 5 10.6
2014-Apr-22 06:30 270 2 gusting 4 10.6
2014-Apr-22 06:25 281 1 gusting 3 10.6
2014-Apr-22 06:20 262 0 gusting 6 10.6
2014-Apr-22 06:15 266 0 gusting 6 9.4
2014-Apr-22 06:10 292 4 gusting 7 8.9
2014-Apr-22 06:05 258 3 gusting 7 8.3
2014-Apr-22 06:00 214 6 gusting 6 8.3
2014-Apr-22 05:55 207 3 gusting 6 8.3
2014-Apr-22 05:50 171 2 gusting 3 8.9
2014-Apr-22 05:45 167 0 gusting 2 8.9
2014-Apr-22 05:40 8.9
2014-Apr-22 05:35 201 1 gusting 4 8.3
2014-Apr-22 05:30 215 3 gusting 6 8.3
2014-Apr-22 05:25 221 3 gusting 6 8.3
2014-Apr-22 05:20 207 2 gusting 6 8.3
2014-Apr-22 05:15 187 0 gusting 6 8.9
2014-Apr-22 05:10 182 3 gusting 6 8.9
2014-Apr-22 05:05 148 2 gusting 4 9.4
2014-Apr-22 05:00 9.4
2014-Apr-22 04:55 9.4
2014-Apr-22 04:50 100 0 gusting 4 9.4
2014-Apr-22 04:45 9.4
2014-Apr-22 04:40 332 2 gusting 6 10.0
2014-Apr-22 04:35 279 1 gusting 7 10.0
2014-Apr-22 04:30 279 3 gusting 7 10.0
2014-Apr-22 04:25 278 4 gusting 7 10.0
2014-Apr-22 04:20 273 4 gusting 7 10.0
2014-Apr-22 04:15 297 1 gusting 11 10.6
2014-Apr-22 04:10 303 2 gusting 11 10.6
2014-Apr-22 04:05 275 6 gusting 9 10.6
2014-Apr-22 04:00 270 6 gusting 9 10.0
2014-Apr-22 03:55 270 3 gusting 8 10.6
2014-Apr-22 03:50 254 3 gusting 7 10.6
2014-Apr-22 03:45 271 5 gusting 9 10.6
2014-Apr-22 03:40 288 2 gusting 9 10.6
2014-Apr-22 03:35 292 5 gusting 9 10.6
2014-Apr-22 03:30 294 3 gusting 9 10.6
2014-Apr-22 03:25 291 5 gusting 9 10.6
2014-Apr-22 03:20 294 6 gusting 9 10.6
2014-Apr-22 03:15 312 4 gusting 8 10.6
2014-Apr-22 03:10 315 4 gusting 10 10.6
2014-Apr-22 03:05 304 4 gusting 10 10.6
2014-Apr-22 03:00 291 7 gusting 9 10.0
2014-Apr-22 02:55 299 4 gusting 8 10.0
2014-Apr-22 02:50 295 4 gusting 9 10.6
2014-Apr-22 02:45 291 5 gusting 9 10.0
2014-Apr-22 02:40 288 4 gusting 9 10.0
2014-Apr-22 02:35 279 6 gusting 12 10.6
2014-Apr-22 02:30 282 6 gusting 12 10.6
2014-Apr-22 02:25 296 5 gusting 11 10.6
2014-Apr-22 02:20 303 6 gusting 12 10.6
2014-Apr-22 02:15 299 6 gusting 12 10.6
2014-Apr-22 02:10 298 4 gusting 12 10.6
2014-Apr-22 02:05 304 6 gusting 12 10.6
2014-Apr-22 02:00 304 6 gusting 9 10.6